IRIDIUM 33 DEB, 46971

Orbit data source: Space-Track

IRIDIUM 33 DEB, 46971 is space debris in LEO originally from a launch on Sun, 14 Sep 1997 UTC launched from the Tyuratam Missile And Space Complex (TTMTR). The debris from Iridium 33, an American commercial communications satellite, has been tracked extensively since its accidental collision with the defunct Russian satellite Cosmos 2251 in 2009. This event, occurring at high speed in low Earth orbit (LEO), generated thousands of pieces of space debris, significantly increasing the risk of further collisions. The Iridium 33 debris cloud has impacted space traffic management and orbital debris mitigation strategies, making it a subject of ongoing study in space situational awareness.

Loading next visibility...
Identifier
46971, 1997-051ACD
Orbit
LEO
Country
Flag of USUS
Related business
Manufacturer
Unknown
Mission
Spacecraft
Bus & Motor
Unknown
Mass
Unknown
Launch date (UTC)
1997-09-14 (28 years ago)
Launch vehicle
Unknown
Launch site
Tyuratam Missile And Space Complex (TTMTR)
Object type
Payload
Rocket body
Debris
Shape & HBR
Unknown shape, 0.1 m
Radar Cross Section
Small (<0.1 m²)

Expand to show TLE details & history
Last TLE update: 3 weeks ago

TLE from 3 weeks ago
0 IRIDIUM 33 DEB
1 46971U 97051ACD 26046.17100049  .00032805  00000-0  24317-2 0  9996
2 46971  86.3384 302.6959 0018324 121.5358  29.3036 15.02823090651968
Epoch: 2026-02-15T04:06Z
TLE epoch observation values (Epoch: 2026-02-15T04:06:14.442Z)
Latitude
29.04048°
Longitude
-86.07289°
Altitude
550.917 km
Speed
7.595 km/s
True Right ascension
08h 02m 40s
True Declination
28° 53' 26"
Sunlit
Object was in full shadow at epoch
Visualization orbit readout
Latitude
Unknown
Longitude
Unknown
Altitude
Unknown
Speed
Unknown
Apparent Right ascension
Unknown
Apparent Declination
Unknown
Sunlit
N/A
Visualization observer readout
Local Sidereal Time
00:29:48
Azimuth
Unknown
Elevation
Unknown
Doppler factor
Unknown
Orbital elements
Apogee altitude
567.77 km
Perigee altitude
542.361 km
Semi-major axis
6,933.202 km
Eccentricity
0.00183
Inclination
86.3384°
RAAN
302.6959°
Arg. of periapsis
121.5358°
True anomaly
29.40658°
Mean anomaly
29.3036°
Eccentric anomaly
29.35507°
Mean motion
3.75961 °/min
Orbital period
95.75 mins
BSTAR
0.0024317
Loading maneuver chart data...
Computing Atmospheric mass density...

Documentation

Showing up to 5 results
|